Location: Unspecified
(43.4354°N, 0.0000°E)
Time: 10:55:31
(UTC+00:00)

A-11 Canister half - Pass Details

Date: 22 June 2019
Orbit: 1514 x 1685 km, 47.2° (Epoch: 18 July)

Event Time Altitude Azimuth Distance (km) Brightness Sun altitude
Rises 09:22:04 0° 210° (SSW) 4,914 11.6 51.6°
Reaches altitude 10° 09:25:28 10° 203° (SSW) 3,917 11.2 52.2°
Maximum altitude 09:34:38 42° 137° (SE) 2,195 11.5 53.8°
Drops below altitude 10° 09:43:32 10° 71° (ENE) 3,818 11.6 55.3°
Sets 09:46:47 0° 65° (ENE) 4,782 11.9 55.8°
